Regional Weather Roundup
Issued by NWS

Home | Current Version | Previous Version | Graphics & Text | Print | Product List | Glossary On
Versions: 1 2 3 4 5 6 7 8 9 10 11 12 13 14 15 16 17 18 19 20 21 22 23 24 25 26 27 28 29 30 31 32 33 34 35 36 37 38 39 40 41 42 43 44 45 46 47 48 49 50
000
ASUS43 KLMK 291702
RWRKY
KENTUCKY REGIONAL WEATHER ROUNDUP
NATIONAL WEATHER SERVICE LOUISVILLE KY
100 PM EDT MON AUG 29 2016

NOTE "FAIR" INDICATES FEW OR NO CLOUDS BELOW 12,000 FEET
WITH NO SIGNIFICANT WEATHER AND/OR OBSTRUCTIONS TO VISIBILITY.

KYZ001>023-026-027-061>063-070>075-291800-
WESTERN AND SOUTH CENTRAL KENTUCKY

CITY           SKY/WX    TMP DP  RH WIND       PRES   REMARKS
PADUCAH        SUNNY     89  73  59 VRB7      30.16F HX  97
HENDERSON      SUNNY     88  70  55 E6        30.17F HX  92
OWENSBORO      SUNNY     89  72  57 NE8       30.19F HX  96
HOPKINSVILLE   SUNNY     86  71  59 W6        30.17S HX  91
BOWLING GREEN  MOSUNNY   87  73  62 NE5       30.18F HX  94
GLASGOW        MOSUNNY   85  73  67 CALM      30.20R HX  92
$$

KYZ024-025-028>034-038-045-046-053-291800-
NORTH CENTRAL KENTUCKY

CITY           SKY/WX    TMP DP  RH WIND       PRES   REMARKS
LOUISVILLE/SDF MOSUNNY   89  67  47 NE10      30.19F HX  92
LOUISVILLE/LOU SUNNY     88  67  49 VRB3      30.21S HX  91
FORT KNOX      SUNNY     86  71  60 VRB6      30.19F HX  91
$$

KYZ035>037-039>044-047>052-055>060-089>105-291800-
NORTHEAST KENTUCKY

CITY           SKY/WX    TMP DP  RH WIND       PRES   REMARKS
LEXINGTON      SUNNY     87  72  60 NE5       30.22F HX  93
COVINGTON      MOSUNNY   85  72  65 NE3       30.23F HX  91
FRANKFORT      SUNNY     87  72  60 VRB6      30.21F HX  93
$$

KYZ054-064>069-076>088-106>120-291800-
SOUTHEAST KENTUCKY

CITY           SKY/WX    TMP DP  RH WIND       PRES   REMARKS
JACKSON        MOSUNNY   84  73  69 CALM      30.23S HX  90
LONDON         SUNNY     86  68  54 CALM      30.22S
SOMERSET       SUNNY     84  68  58 CALM      30.22S
MIDDLESBORO    SUNNY     85  69  57 N6        30.21F
MONTICELLO     PTSUNNY  N/A N/A N/A MISG      30.22S
$$





USA.gov is the U.S. government's official web portal to all federal, state and local government web resources and services.